Regional Weather Roundup
Issued by NWS

Home | Current Version | Previous Version | Graphics & Text | Print | Product List | Glossary On
Versions: 1 2 3 4 5 6 7 8 9 10 11 12 13 14 15 16 17 18 19 20 21 22 23 24 25 26 27 28 29 30 31 32 33 34 35 36 37 38 39 40 41 42 43 44 45 46 47 48 49 50
000
ASUS43 KOAX 221310
RWRNE

WEATHER ROUNDUP FOR NEBRASKA
NATIONAL WEATHER SERVICE OMAHA NE
700 AM CST SAT NOV 22 2014

NOTES: SATELLITE DATA IS BEING USED TO AUGMENT CLOUD COVER ABOVE
       12000 FEET.
       "FAIR" INDICATES FEW OR NO CLOUDS BELOW 12,000 FEET WITH NO
       SIGNIFICANT WEATHER AND/OR OBSTRUCTIONS TO VISIBILITY.

  * THESE STATIONS DO NOT REPORT WEATHER SUCH AS RAIN...SNOW OR FOG.

NEZ001>004-019>022-054>056-221400-
NEBRASKA PANHANDLE

CITY           SKY/WX    TMP DP  RH WIND       PRES   REMARKS
SCOTTSBLUFF    PTCLDY    25  19  78 E7        29.74F WCI  17
ALLIANCE       CLEAR     25  18  74 S7        29.71F WCI  17
CHADRON        MOCLDY    30  22  72 SW8       29.64F WCI  22
KIMBALL        PTCLDY    29  19  67 W8        29.76F WCI  21
SIDNEY         CLEAR     28  20  71 SW12      29.77F WCI  18
$$

NEZ057>060-069>072-079>082-221400-
SOUTHWEST NEBRASKA

CITY           SKY/WX    TMP DP  RH WIND       PRES   REMARKS
NORTH PLATTE   CLEAR     16  13  88 NW5       29.81F WCI   9
IMPERIAL       CLEAR     24  15  68 W5        29.81F WCI  18
LEXINGTON      CLEAR     19  17  93 NW3       29.82F
MCCOOK         CLEAR     21  17  84 W7        29.84F WCI  12
OGALLALA       CLEAR     17  15  93 W3        29.79F
$$

NEZ005>010-023>029-035>040-094-221400-
NORTH CENTRAL NEBRASKA

CITY           SKY/WX    TMP DP  RH WIND       PRES   REMARKS
VALENTINE      CLEAR     25  21  85 SW7       29.69F WCI  17
BROKEN BOW     CLEAR     26  22  84 W7        29.77F WCI  18
O`NEILL        CLEAR     30  28  93 SW6       29.74F WCI  24
ORD            FOG       21  19  92 CALM      29.78F VSB 1/4
THEDFORD       CLEAR     30  24  78 CALM      29.75S
$$

NEZ041-046>049-061>064-073>077-083>087-221400-
SOUTH CENTRAL NEBRASKA

CITY           SKY/WX    TMP DP  RH WIND       PRES   REMARKS
GRAND ISLAND   CLOUDY   N/A N/A N/A S13       29.84F FOG
AURORA         FOG       36  36 100 SW13      29.84F VSB 1/2 WCI  27
HASTINGS       FOG       34  33  96 S10       29.85F VSB 1/2 WCI  26
HEBRON         FOG       38  36  93 SW9       29.90S VSB 1   WCI  31
HOLDREGE       PTCLDY    24  22  95 S3        29.83F FOG
KEARNEY *      CLOUDY    27  25  93 S7        29.84F VSB 3/4 WCI  19
YORK           HAZE      36  27  69 SW10G21   29.85F VSB 3/4 WCI  28
$$

NEZ011>018-030>034-042>045-221400-
NORTHEAST NEBRASKA

CITY           SKY/WX    TMP DP  RH WIND       PRES   REMARKS
NORFOLK        CLOUDY    35  33  92 S18       29.79F FOG     WCI  24
ALBION         CLOUDY    30  28  92 S7        29.80F FOG     WCI  23
BLAIR          CLOUDY    38  37  93 S16       29.85F FOG     WCI  29
COLUMBUS *     CLOUDY    36  34  93 SW9       29.85F WCI  29
FREMONT        CLOUDY    38  37  99 S9        29.85F FOG     WCI  31
TEKAMAH        CLOUDY    38  36  92 S12       29.86S FOG     WCI  30
WAYNE          CLOUDY    36  35  96 S18       29.79F FOG     WCI  26
$$

NEZ050>053-065>068-078-088>093-221400-
SOUTHEAST NEBRASKA

CITY           SKY/WX    TMP DP  RH WIND       PRES   REMARKS
LINCOLN        CLOUDY    38  36  92 SW9       29.89F FOG     WCI  31
OMAHA EPPLEY   CLOUDY    39  37  92 S9        29.89F FOG     WCI  33
BEATRICE       FOG       38  38 100 SW9       29.90S VSB 3/4 WCI  32
FALLS CITY     CLOUDY    41  40  96 SW7       29.92F FOG
NEBRASKA CITY  CLOUDY    40  40 100 SW9       29.89F FOG     WCI  34
PLATTSMOUTH    CLOUDY    39  38  94 SW12      29.89F FOG     WCI  32
$$

NEZ044-045-051>053-067-221400-
OMAHA AREA

CITY           SKY/WX    TMP DP  RH WIND       PRES   REMARKS
OMAHA EPPLEY   CLOUDY    39  37  92 S9        29.89F FOG     WCI  33
BLAIR          CLOUDY    38  37  93 S16       29.85F FOG     WCI  29
FREMONT        CLOUDY    38  37  99 S9        29.85F FOG     WCI  31
MILLARD        CLOUDY    40  38  93 S5        29.88F FOG
OFFUTT AFB     CLOUDY    39  37  93 S5        29.89S
PLATTSMOUTH    CLOUDY    39  38  94 SW12      29.89F FOG     WCI  32
WAHOO          CLOUDY    38  35  91 S10       29.86F FOG     WCI  30
$$



USA.gov is the U.S. government's official web portal to all federal, state and local government web resources and services.